Weather History for KI75 - March, 2014

Change the Weather History Date:

Tuesday, March 11, 2014

  Actual Average (KLWD) Record (KLWD)
Temperature  
Mean Temperature 40 °F 38 °F  
Max Temperature 47 °F 48 °F 80 °F (1972)
Min Temperature 34 °F 28 °F 6 °F (1969)
Degree Days  
Heating Degree Days 24 27  
Month to date heating degree days 323  
Since 1 July heating degree days 5040  
Cooling Degree Days 0 0  
Month to date cooling degree days 0  
Year to date cooling degree days 0  
Moisture  
Dew Point 34 °F    
Average Humidity 77    
Maximum Humidity 87    
Minimum Humidity 62    
Precipitation  
Precipitation 0.00 in 0.06 in 1.35 in (1976)
Month to date precipitation 0.66  
Sea Level Pressure  
Sea Level Pressure 29.67 in    
Wind  
Wind Speed 11 mph (NE)    
Max Wind Speed 28 mph    
Max Gust Speed 39 mph    
Visibility 10 miles    
Events Snow    
T = Trace of Precipitation, MM = Missing Value Source: NWS Daily Summary

Daily Weather History Graph

Daily Weather History Graph

Search for Another Location

Airport or City:

Trip Planner

Search our weather history database for the weather conditions in past years. The results will help you decide how hot, cold, wet, or windy it might be!

Date:

Astronomy

Mar. 11, 2014 Rise Set
Actual Time 7:32 AM CDT 7:17 PM CDT
Civil Twilight 7:05 AM CDT 7:44 PM CDT
Nautical Twilight 6:33 AM CDT 8:16 PM CDT
Astronomical Twilight 6:01 AM CDT 8:48 PM CDT
Moon 2:52 PM CDT (3/11) 4:28 AM CDT (3/11)
Length of Visible Light 12h 38m
Length of Day
11h 44m
Waxing Gibbous, 78% of the Moon is Illuminated
Mar 11
Waxing Gibbous
Mar 16
Full
Mar 23
Last Quarter
Mar 30
New
Apr 7
First Quarter

Hourly Weather History & Observations

Time (CDT) Temp. Windchill Dew Point Humidity Pressure Visibility Wind Dir Wind Speed Gust Speed Precip Events Conditions
12:15 AM 39.4 °F 37.2 °F 34.5 °F 83% 29.66 in 10.0 mi ESE 3.5 mph - N/A   Clear
12:35 AM 38.8 °F 34.6 °F 34.2 °F 83% 29.66 in 10.0 mi East 5.8 mph - N/A   Clear
12:55 AM 39.7 °F 34.9 °F 34.0 °F 80% 29.64 in 10.0 mi ESE 6.9 mph - N/A   Clear
1:10 AM 39.4 °F 35.2 °F 33.6 °F 80% 29.63 in 10.0 mi ESE 5.8 mph - N/A   Clear
1:35 AM 40.5 °F 37.3 °F 33.1 °F 75% 29.63 in 10.0 mi SE 4.6 mph - N/A   Clear
1:55 AM 37.9 °F 34.4 °F 32.7 °F 81% 29.63 in 10.0 mi NE 4.6 mph - N/A   Clear
2:15 AM 37.6 °F 33.1 °F 33.3 °F 84% 29.63 in 10.0 mi ENE 5.8 mph - N/A   Clear
2:35 AM 39.2 °F 35.0 °F 34.2 °F 82% 29.62 in 10.0 mi East 5.8 mph - N/A   Clear
2:55 AM 39.2 °F 34.2 °F 34.0 °F 82% 29.61 in 10.0 mi East 6.9 mph - N/A   Clear
3:15 AM 40.5 °F 35.8 °F 34.5 °F 79% 29.61 in 10.0 mi ESE 6.9 mph - N/A   Clear
3:35 AM 40.1 °F 35.3 °F 34.2 °F 79% 29.60 in 10.0 mi East 6.9 mph - N/A   Clear
3:55 AM 39.9 °F 35.1 °F 34.3 °F 80% 29.59 in 10.0 mi East 6.9 mph - N/A   Clear
4:15 AM 40.1 °F 35.3 °F 34.7 °F 81% 29.58 in 10.0 mi East 6.9 mph - N/A   Clear
4:35 AM 40.3 °F 34.9 °F 34.9 °F 81% 29.56 in 10.0 mi East 8.1 mph - N/A   Clear
4:55 AM 41.4 °F 36.8 °F 35.6 °F 80% 29.57 in 10.0 mi ESE 6.9 mph - N/A   Clear
5:15 AM 40.6 °F 36.7 °F 35.2 °F 81% 29.57 in 10.0 mi East 5.8 mph - N/A   Clear
5:35 AM 40.3 °F 37.1 °F 34.9 °F 81% 29.57 in 10.0 mi ENE 4.6 mph - N/A   Clear
5:55 AM 40.1 °F 36.1 °F 35.1 °F 82% 29.57 in 10.0 mi East 5.8 mph - N/A   Clear
6:15 AM 40.5 °F 35.8 °F 35.6 °F 83% 29.57 in 10.0 mi ENE 6.9 mph - N/A   Mostly Cloudy
6:35 AM 39.9 °F 35.1 °F 35.8 °F 85% 29.57 in 10.0 mi ENE 6.9 mph - N/A   Scattered Clouds
6:55 AM 40.1 °F 34.7 °F 36.1 °F 86% 29.56 in 10.0 mi ENE 8.1 mph - N/A   Clear
7:15 AM 39.9 °F 34.5 °F 35.8 °F 85% 29.56 in 10.0 mi ENE 8.1 mph - N/A   Clear
7:35 AM 39.0 °F 34.8 °F 35.4 °F 87% 29.57 in 10.0 mi ENE 5.8 mph - N/A   Clear
7:55 AM 39.6 °F 34.7 °F 35.8 °F 86% 29.57 in 10.0 mi ENE 6.9 mph - N/A   Clear
8:15 AM 39.7 °F 34.9 °F 35.8 °F 86% 29.56 in 10.0 mi ENE 6.9 mph - N/A   Clear
8:35 AM 39.6 °F 35.4 °F 35.6 °F 86% 29.57 in 10.0 mi NE 5.8 mph - N/A   Clear
8:55 AM 39.9 °F 36.7 °F 36.0 °F 86% 29.56 in 10.0 mi ENE 4.6 mph - N/A   Clear
9:15 AM 40.3 °F 36.3 °F 36.1 °F 85% 29.55 in 10.0 mi ENE 5.8 mph - N/A   Clear
9:35 AM 41.0 °F 37.1 °F 36.5 °F 84% 29.56 in 10.0 mi ENE 5.8 mph - N/A   Clear
9:55 AM 42.1 °F 37.7 °F 36.9 °F 82% 29.56 in 10.0 mi ENE 6.9 mph - N/A   Clear
10:15 AM 43.0 °F 37.7 °F 37.4 °F 81% 29.57 in 10.0 mi NNE 9.2 mph - N/A   Clear
10:35 AM 43.9 °F 39.3 °F 37.4 °F 78% 29.58 in 10.0 mi NNE 8.1 mph - N/A   Clear
10:55 AM 45.0 °F 40.1 °F 37.9 °F 76% 29.57 in 10.0 mi NNE 9.2 mph - N/A   Clear
11:15 AM 45.5 °F 39.9 °F 37.9 °F 75% 29.58 in 10.0 mi NNE 11.5 mph - N/A   Clear
11:35 AM 45.5 °F 40.3 °F 37.6 °F 74% 29.60 in 10.0 mi NNE 10.4 mph - N/A   Clear
11:55 AM 45.5 °F 39.6 °F 37.8 °F 74% 29.61 in 10.0 mi NNE 12.7 mph - N/A   Clear
12:15 PM 46.6 °F - 37.9 °F 72% 29.61 in 10.0 mi North 15.0 mph 20.7 mph N/A   Clear
12:35 PM 46.6 °F - 37.2 °F 70% 29.62 in 10.0 mi NNE 18.4 mph - N/A   Clear
12:55 PM 47.5 °F - 36.5 °F 66% 29.62 in 10.0 mi NNE 20.7 mph 26.5 mph N/A   Clear
1:15 PM 47.5 °F - 35.6 °F 63% 29.61 in 10.0 mi NNE 20.7 mph 29.9 mph N/A   Clear
1:35 PM 47.8 °F - 35.4 °F 62% 29.60 in 10.0 mi NNE 26.5 mph 32.2 mph N/A   Clear
1:55 PM 46.8 °F - 34.5 °F 62% 29.59 in 10.0 mi NNE 25.3 mph 36.8 mph N/A   Clear
2:15 PM 46.9 °F - 34.5 °F 62% 29.59 in 10.0 mi NE 27.6 mph 35.7 mph N/A   Clear
2:35 PM 46.4 °F 37.9 °F 35.1 °F 65% 29.59 in 10.0 mi NNE 25.3 mph 35.7 mph N/A   Clear
2:55 PM 46.0 °F 37.2 °F 34.9 °F 65% 29.59 in 10.0 mi NE 26.5 mph 38.0 mph N/A   Clear
3:15 PM 47.3 °F - 35.1 °F 62% 29.65 in 10.0 mi NNE 26.5 mph 39.1 mph N/A   Scattered Clouds
3:35 PM 46.2 °F 38.5 °F 34.7 °F 64% 29.70 in 10.0 mi NNE 20.7 mph 32.2 mph N/A   Mostly Cloudy
3:55 PM 45.1 °F 36.6 °F 35.2 °F 68% 29.68 in 10.0 mi NNE 23.0 mph 31.1 mph N/A   Overcast
4:15 PM 45.0 °F 36.2 °F 35.8 °F 70% 29.68 in 10.0 mi NNE 24.2 mph 32.2 mph N/A   Overcast
4:35 PM 43.9 °F 35.4 °F 35.4 °F 72% 29.71 in 10.0 mi North 20.7 mph 33.4 mph N/A   Overcast
4:55 PM 41.0 °F 30.7 °F 34.2 °F 77% 29.72 in 10.0 mi North 25.3 mph 33.4 mph N/A   Overcast
5:15 PM 39.9 °F 29.0 °F 33.8 °F 79% 29.72 in 10.0 mi North 26.5 mph 36.8 mph N/A   Overcast
5:35 PM 40.1 °F 29.9 °F 33.4 °F 77% 29.75 in 10.0 mi NNE 23.0 mph 29.9 mph N/A   Overcast
5:55 PM 39.6 °F 29.7 °F 33.3 °F 78% 29.75 in 10.0 mi North 20.7 mph 34.5 mph N/A   Overcast
6:15 PM 39.0 °F 29.0 °F 32.7 °F 78% 29.77 in 10.0 mi North 20.7 mph 33.4 mph N/A   Overcast
6:35 PM 38.7 °F 28.8 °F 32.9 °F 80% 29.78 in 10.0 mi North 19.6 mph 33.4 mph N/A   Overcast
6:55 PM 38.1 °F 26.8 °F 32.2 °F 79% 29.80 in 10.0 mi North 25.3 mph 35.7 mph N/A   Overcast
7:15 PM 37.9 °F 27.6 °F 32.0 °F 79% 29.80 in 10.0 mi North 20.7 mph 28.8 mph N/A   Overcast
7:35 PM 37.8 °F 26.6 °F 32.0 °F 80% 29.79 in 10.0 mi NNE 24.2 mph 29.9 mph N/A   Overcast
7:55 PM 37.4 °F 26.9 °F 31.8 °F 80% 29.78 in 10.0 mi North 20.7 mph 38.0 mph N/A   Overcast
8:15 PM 36.7 °F 26.0 °F 32.0 °F 83% 29.81 in 10.0 mi North 20.7 mph 28.8 mph N/A   Overcast
8:35 PM 36.5 °F 25.2 °F 31.3 °F 81% 29.84 in 10.0 mi North 23.0 mph 29.9 mph N/A   Overcast
8:55 PM 36.1 °F 24.2 °F 28.9 °F 75% 29.84 in 10.0 mi North 25.3 mph 34.5 mph N/A   Overcast
9:15 PM 35.6 °F 23.7 °F 29.3 °F 78% 29.83 in 10.0 mi North 24.2 mph 31.1 mph N/A   Light Drizzle
9:35 PM 34.7 °F 23.1 °F 29.8 °F 82% 29.87 in 7.0 mi NNW 21.9 mph 29.9 mph N/A Snow Light Snow
9:55 PM 34.2 °F 23.6 °F 29.3 °F 82% 29.87 in 4.0 mi North 17.3 mph 26.5 mph N/A Snow Light Snow
10:15 PM 34.7 °F 23.7 °F 28.8 °F 79% 29.88 in 10.0 mi North 19.6 mph 24.2 mph N/A Snow Light Snow
10:35 PM 34.9 °F 25.3 °F 28.2 °F 77% 29.90 in 10.0 mi North 15.0 mph 20.7 mph N/A   Overcast
10:55 PM 34.9 °F 26.2 °F 27.9 °F 76% 29.90 in 10.0 mi North 12.7 mph 19.6 mph N/A   Overcast
11:15 PM 35.2 °F 27.1 °F 27.5 °F 73% 29.93 in 10.0 mi NNW 11.5 mph - N/A   Overcast
11:35 PM 35.4 °F 26.4 °F 27.0 °F 71% 29.92 in 10.0 mi North 13.8 mph 20.7 mph N/A   Overcast
11:55 PM 35.6 °F 24.8 °F 26.6 °F 70% 29.93 in 10.0 mi North 19.6 mph 27.6 mph N/A   Overcast